Home > Time Zones > World Clock > Weather > U.S.A. > Erie > Past weeks

Flag for U.S.A. Weather past 2 weeks in Erie, Pennsylvania, U.S.A.

Now
67 °F

Clear.


Feels Like: 67 °F
Forecast: 65 / 84 °F
Wind: 15 mph from South

Location: Erie International Airport

Current Time: Aug 30, 2014 at 7:09:48 AM

Latest Report: Aug 30, 2014 at 5:51 AM


Visibility: 10 mi

Pressure: 30.04 "Hg

Humidity: 66%

Dew point: 55 °F

Location of ErieLocation

Historic Weather in Erie — Graph

°F

Erie temperature yesterday

Maximum temperature yesterday: 77 °F (at 2:51 PM)
Minimum temperature yesterday: 55 °F (at 3:51 AM)
Average temperature yesterday: 65 °F

Past Weeks' High & Low Weather Summary

 TemperatureHumidityPressure
High87 °F (Aug 26, 2:51 PM)94% (Aug 23, 1:58 AM)30.19 "Hg (Aug 23, 1:58 AM)
Low51 °F (Aug 15, 5:51 AM)33% (Aug 29, 2:51 PM)29.81 "Hg (Aug 19, 4:51 PM)
Average69 °F70%30.01 "Hg
* Reported Aug 15 5:51 AM — Aug 30 5:51 AM, Erie, Weather by CustomWeather, © 2014

Note: Actual official high and low records may vary slightly from our data, if they occured in-between our weather recording intervals... More about our weather records

Advertising

Erie weather history for previous 24 hours

 ConditionsComfort  
Time TempWeatherWind HumidityBarometerVisibility
5:51 AM
Aug 30
67 °FClear.15 mph66%30.04 "Hg10 mi
4:51 AM67 °FClear.14 mph66%30.04 "Hg10 mi
3:51 AM67 °FClear.16 mph63%30.05 "Hg10 mi
2:51 AM66 °FClear.14 mph65%30.06 "Hg10 mi
1:51 AM67 °FClear.14 mph63%30.06 "Hg10 mi
12:51 AM67 °FClear.14 mph63%30.08 "Hg10 mi
11:51 PM
Aug 29
66 °FClear.9 mph63%30.08 "Hg10 mi
10:51 PM67 °FClear.8 mph63%30.08 "Hg10 mi
9:51 PM67 °FClear.5 mph68%30.09 "Hg10 mi
8:51 PM68 °FSunny.No wind73%30.09 "Hg10 mi
7:51 PM70 °FSunny.6 mph66%30.10 "Hg10 mi
6:51 PM73 °FSunny.8 mph57%30.10 "Hg10 mi
5:51 PM75 °FSunny.8 mph52%30.09 "Hg10 mi
4:51 PM76 °FSunny.9 mph45%30.10 "Hg10 mi
2:51 PM77 °FSunny.6 mph33%30.13 "Hg10 mi
1:51 PM76 °FSunny.8 mph36%30.14 "Hg10 mi
12:51 PM74 °FSunny.10 mph38%30.16 "Hg10 mi
11:51 AM71 °FSunny.10 mph42%30.17 "Hg10 mi
10:51 AM69 °FSunny.9 mph49%30.17 "Hg10 mi
9:51 AM66 °FSunny.8 mph54%30.19 "Hg10 mi
8:51 AM62 °FSunny.7 mph65%30.19 "Hg10 mi
7:51 AM56 °FSunny.8 mph81%30.18 "Hg10 mi
Weather by CustomWeather, © 2014

See weather overviewHow to use our weather pages